Time,TemperatureF,DewpointF,PressureIn,WindDirection,WindDirectionDegrees,WindSpeedMPH,WindSpeedGustMPH,Humidity,HourlyPrecipIn,Conditions,Clouds,dailyrainin,SoftwareType,DateUTC
2013-01-16 00:00:00,26.2,25.2,30.69,SE,130,0.0,0.0,96,0.00,,,0.00,Wunderground v.1.15,2013-01-16 08:00:00,
2013-01-16 00:06:00,26.1,25.1,30.69,SE,130,0.0,1.0,96,0.00,,,0.00,Wunderground v.1.15,2013-01-16 08:06:00,
2013-01-16 00:12:00,26.0,25.0,30.69,SE,130,0.0,0.0,96,0.00,,,0.00,Wunderground v.1.15,2013-01-16 08:12:00,
2013-01-16 00:17:00,26.0,25.0,30.69,SE,130,0.0,2.0,96,0.00,,,0.00,Wunderground v.1.15,2013-01-16 08:17:00,
2013-01-16 00:22:00,26.0,25.0,30.69,SE,130,1.0,1.0,96,0.00,,,0.00,Wunderground v.1.15,2013-01-16 08:22:00,
2013-01-16 00:27:00,25.9,24.9,30.69,SE,130,1.0,1.0,96,0.00,,,0.00,Wunderground v.1.15,2013-01-16 08:27:00,
2013-01-16 00:33:00,25.8,24.8,30.69,SE,130,0.0,1.0,96,0.00,,,0.00,Wunderground v.1.15,2013-01-16 08:33:00,
2013-01-16 00:38:00,25.7,24.7,30.69,SE,130,1.0,2.0,96,0.00,,,0.00,Wunderground v.1.15,2013-01-16 08:38:00,
2013-01-16 00:43:00,25.7,24.7,30.69,SE,130,1.0,1.0,96,0.00,,,0.00,Wunderground v.1.15,2013-01-16 08:43:00,
2013-01-16 00:48:00,25.7,24.7,30.69,SE,130,0.0,1.0,96,0.00,,,0.00,Wunderground v.1.15,2013-01-16 08:48:00,
2013-01-16 00:54:00,25.7,24.7,30.69,SE,130,0.0,2.0,96,0.00,,,0.00,Wunderground v.1.15,2013-01-16 08:54:00,
2013-01-16 00:59:00,25.7,25.0,30.69,SE,130,1.0,2.0,97,0.00,,,0.00,Wunderground v.1.15,2013-01-16 08:59:00,
2013-01-16 01:05:00,25.7,24.7,30.69,SE,130,0.0,1.0,96,0.00,,,0.00,Wunderground v.1.15,2013-01-16 09:05:00,
2013-01-16 01:11:00,25.7,24.7,30.69,SE,130,0.0,0.0,96,0.00,,,0.00,Wunderground v.1.15,2013-01-16 09:11:00,
2013-01-16 01:16:00,25.8,25.1,30.69,SE,130,0.0,2.0,97,0.00,,,0.00,Wunderground v.1.15,2013-01-16 09:16:00,
2013-01-16 01:21:00,25.8,25.1,30.69,SE,130,1.0,1.0,97,0.00,,,0.00,Wunderground v.1.15,2013-01-16 09:21:00,
2013-01-16 01:27:00,25.8,25.1,30.69,SE,130,0.0,1.0,97,0.00,,,0.00,Wunderground v.1.15,2013-01-16 09:27:00,
2013-01-16 01:32:00,25.9,25.2,30.69,SE,130,0.0,0.0,97,0.00,,,0.00,Wunderground v.1.15,2013-01-16 09:32:00,
2013-01-16 01:37:00,25.8,25.1,30.69,SE,130,0.0,1.0,97,0.00,,,0.00,Wunderground v.1.15,2013-01-16 09:37:00,
2013-01-16 01:43:00,25.8,25.1,30.69,SE,130,0.0,0.0,97,0.00,,,0.00,Wunderground v.1.15,2013-01-16 09:43:00,
2013-01-16 01:48:00,25.8,25.1,30.69,SE,130,0.0,0.0,97,0.00,,,0.00,Wunderground v.1.15,2013-01-16 09:48:00,
2013-01-16 01:53:00,25.8,25.1,30.69,SE,130,0.0,0.0,97,0.00,,,0.00,Wunderground v.1.15,2013-01-16 09:53:00,
2013-01-16 01:58:00,25.7,25.0,30.69,SE,130,0.0,2.0,97,0.00,,,0.00,Wunderground v.1.15,2013-01-16 09:58:00,
2013-01-16 02:04:00,25.7,25.0,30.69,SE,130,1.0,1.0,97,0.00,,,0.00,Wunderground v.1.15,2013-01-16 10:04:00,
2013-01-16 02:09:00,25.7,25.0,30.69,SE,130,0.0,2.0,97,0.00,,,0.00,Wunderground v.1.15,2013-01-16 10:09:00,
2013-01-16 02:14:00,25.7,25.0,30.69,SE,130,1.0,2.0,97,0.00,,,0.00,Wunderground v.1.15,2013-01-16 10:14:00,
2013-01-16 02:19:00,25.7,25.0,30.69,SE,130,1.0,2.0,97,0.00,,,0.00,Wunderground v.1.15,2013-01-16 10:19:00,
2013-01-16 02:25:00,25.6,24.9,30.69,SE,130,1.0,2.0,97,0.00,,,0.00,Wunderground v.1.15,2013-01-16 10:25:00,
2013-01-16 02:30:00,25.5,24.8,30.69,SE,130,0.0,0.0,97,0.00,,,0.00,Wunderground v.1.15,2013-01-16 10:30:00,
2013-01-16 02:36:00,25.5,24.8,30.69,SE,130,0.0,0.0,97,0.00,,,0.00,Wunderground v.1.15,2013-01-16 10:36:00,
2013-01-16 02:42:00,25.4,24.7,30.69,SE,130,0.0,0.0,97,0.00,,,0.00,Wunderground v.1.15,2013-01-16 10:42:00,
2013-01-16 02:48:00,25.3,24.3,30.69,SE,130,0.0,0.0,96,0.00,,,0.00,Wunderground v.1.15,2013-01-16 10:48:00,
2013-01-16 02:53:00,25.4,24.7,30.69,SE,130,0.0,1.0,97,0.00,,,0.00,Wunderground v.1.15,2013-01-16 10:53:00,
2013-01-16 02:58:00,25.4,24.7,30.69,SE,130,0.0,1.0,97,0.00,,,0.00,Wunderground v.1.15,2013-01-16 10:58:00,
2013-01-16 03:03:00,25.4,24.7,30.70,SE,130,0.0,0.0,97,0.00,,,0.00,Wunderground v.1.15,2013-01-16 11:03:00,
2013-01-16 03:08:00,25.3,24.6,30.69,SE,130,0.0,0.0,97,0.00,,,0.00,Wunderground v.1.15,2013-01-16 11:08:00,
2013-01-16 03:14:00,25.2,24.2,30.69,SE,130,0.0,0.0,96,0.00,,,0.00,Wunderground v.1.15,2013-01-16 11:14:00,
2013-01-16 03:19:00,25.1,24.1,30.69,SE,130,0.0,0.0,96,0.00,,,0.00,Wunderground v.1.15,2013-01-16 11:19:00,
2013-01-16 03:24:00,24.9,23.9,30.70,SE,130,0.0,0.0,96,0.00,,,0.00,Wunderground v.1.15,2013-01-16 11:24:00,
2013-01-16 03:31:00,24.8,23.8,30.69,SE,130,0.0,0.0,96,0.00,,,0.00,Wunderground v.1.15,2013-01-16 11:31:00,
2013-01-16 03:36:00,24.7,23.7,30.69,SE,130,0.0,0.0,96,0.00,,,0.00,Wunderground v.1.15,2013-01-16 11:36:00,
2013-01-16 03:42:00,24.7,23.7,30.69,SE,130,0.0,0.0,96,0.00,,,0.00,Wunderground v.1.15,2013-01-16 11:42:00,
2013-01-16 03:47:00,24.7,23.7,30.69,SE,130,0.0,0.0,96,0.00,,,0.00,Wunderground v.1.15,2013-01-16 11:47:00,
2013-01-16 03:52:00,24.8,24.1,30.69,SE,130,0.0,1.0,97,0.00,,,0.00,Wunderground v.1.15,2013-01-16 11:52:00,
2013-01-16 03:58:00,24.9,24.2,30.69,SE,130,0.0,2.0,97,0.00,,,0.00,Wunderground v.1.15,2013-01-16 11:58:00,
2013-01-16 04:03:00,24.9,24.2,30.69,SE,130,0.0,0.0,97,0.00,,,0.00,Wunderground v.1.15,2013-01-16 12:03:00,
2013-01-16 04:09:00,24.8,24.1,30.69,SE,130,0.0,0.0,97,0.00,,,0.00,Wunderground v.1.15,2013-01-16 12:09:00,
2013-01-16 04:14:00,24.6,23.6,30.69,SE,130,0.0,0.0,96,0.00,,,0.00,Wunderground v.1.15,2013-01-16 12:14:00,
2013-01-16 04:19:00,24.5,23.5,30.69,SE,130,0.0,0.0,96,0.00,,,0.00,Wunderground v.1.15,2013-01-16 12:19:00,
2013-01-16 04:24:00,24.4,23.4,30.69,SE,130,0.0,0.0,96,0.00,,,0.00,Wunderground v.1.15,2013-01-16 12:24:00,
2013-01-16 04:30:00,24.4,23.4,30.68,SE,130,0.0,0.0,96,0.00,,,0.00,Wunderground v.1.15,2013-01-16 12:30:00,
2013-01-16 04:35:00,24.3,23.3,30.68,SE,130,0.0,0.0,96,0.00,,,0.00,Wunderground v.1.15,2013-01-16 12:35:00,
2013-01-16 04:41:00,24.3,23.3,30.68,SE,130,0.0,0.0,96,0.00,,,0.00,Wunderground v.1.15,2013-01-16 12:41:00,
2013-01-16 04:46:00,24.2,23.2,30.68,SE,130,0.0,0.0,96,0.00,,,0.00,Wunderground v.1.15,2013-01-16 12:46:00,
2013-01-16 04:51:00,24.1,23.1,30.68,SE,130,0.0,0.0,96,0.00,,,0.00,Wunderground v.1.15,2013-01-16 12:51:00,
2013-01-16 04:56:00,24.0,23.0,30.68,SE,130,0.0,0.0,96,0.00,,,0.00,Wunderground v.1.15,2013-01-16 12:56:00,
2013-01-16 05:02:00,24.0,23.0,30.67,SE,130,1.0,1.0,96,0.00,,,0.00,Wunderground v.1.15,2013-01-16 13:02:00,
2013-01-16 05:07:00,24.0,23.0,30.67,SE,130,1.0,2.0,96,0.00,,,0.00,Wunderground v.1.15,2013-01-16 13:07:00,
2013-01-16 05:12:00,23.8,22.8,30.67,SE,130,1.0,1.0,96,0.00,,,0.00,Wunderground v.1.15,2013-01-16 13:12:00,
2013-01-16 05:17:00,23.8,22.8,30.67,SE,130,0.0,1.0,96,0.00,,,0.00,Wunderground v.1.15,2013-01-16 13:17:00,
2013-01-16 05:23:00,23.8,22.8,30.67,SE,130,0.0,0.0,96,0.00,,,0.00,Wunderground v.1.15,2013-01-16 13:23:00,
2013-01-16 05:28:00,23.8,22.8,30.67,SE,130,0.0,0.0,96,0.00,,,0.00,Wunderground v.1.15,2013-01-16 13:28:00,
2013-01-16 05:33:00,23.8,22.8,30.67,SE,130,0.0,0.0,96,0.00,,,0.00,Wunderground v.1.15,2013-01-16 13:33:00,
2013-01-16 05:38:00,23.6,22.6,30.67,SE,130,0.0,1.0,96,0.00,,,0.00,Wunderground v.1.15,2013-01-16 13:38:00,
2013-01-16 05:44:00,23.6,22.6,30.66,SE,130,0.0,0.0,96,0.00,,,0.00,Wunderground v.1.15,2013-01-16 13:44:00,
2013-01-16 05:49:00,23.5,22.5,30.66,SE,130,0.0,0.0,96,0.00,,,0.00,Wunderground v.1.15,2013-01-16 13:49:00,
2013-01-16 05:55:00,23.5,22.5,30.66,SE,130,0.0,0.0,96,0.00,,,0.00,Wunderground v.1.15,2013-01-16 13:55:00,
2013-01-16 06:00:00,23.4,22.4,30.66,SE,130,0.0,0.0,96,0.00,,,0.00,Wunderground v.1.15,2013-01-16 14:00:00,
2013-01-16 06:06:00,23.4,22.4,30.66,SE,130,0.0,0.0,96,0.00,,,0.00,Wunderground v.1.15,2013-01-16 14:06:00,
2013-01-16 06:12:00,23.4,22.4,30.66,SE,130,0.0,0.0,96,0.00,,,0.00,Wunderground v.1.15,2013-01-16 14:12:00,
2013-01-16 06:17:00,23.5,22.5,30.66,SE,130,0.0,2.0,96,0.00,,,0.00,Wunderground v.1.15,2013-01-16 14:17:00,
2013-01-16 06:22:00,23.5,22.5,30.66,SE,130,0.0,0.0,96,0.00,,,0.00,Wunderground v.1.15,2013-01-16 14:22:00,
2013-01-16 06:27:00,23.6,22.9,30.66,SE,130,0.0,0.0,97,0.00,,,0.00,Wunderground v.1.15,2013-01-16 14:27:00,
2013-01-16 06:33:00,23.6,22.9,30.66,SE,130,0.0,0.0,97,0.00,,,0.00,Wunderground v.1.15,2013-01-16 14:33:00,
2013-01-16 06:38:00,23.6,22.6,30.66,SE,130,0.0,0.0,96,0.00,,,0.00,Wunderground v.1.15,2013-01-16 14:38:00,
2013-01-16 06:43:00,23.7,23.0,30.66,SE,130,0.0,0.0,97,0.00,,,0.00,Wunderground v.1.15,2013-01-16 14:43:00,
2013-01-16 06:49:00,23.7,22.7,30.66,SE,130,0.0,0.0,96,0.00,,,0.00,Wunderground v.1.15,2013-01-16 14:49:00,
2013-01-16 06:55:00,23.6,22.6,30.66,SE,130,0.0,1.0,96,0.00,,,0.00,Wunderground v.1.15,2013-01-16 14:55:00,
2013-01-16 07:01:00,23.5,22.5,30.65,SE,130,0.0,0.0,96,0.00,,,0.00,Wunderground v.1.15,2013-01-16 15:01:00,
2013-01-16 07:06:00,23.4,22.4,30.65,SE,130,0.0,0.0,96,0.00,,,0.00,Wunderground v.1.15,2013-01-16 15:06:00,
2013-01-16 07:11:00,23.3,22.3,30.65,SE,130,0.0,0.0,96,0.00,,,0.00,Wunderground v.1.15,2013-01-16 15:11:00,
2013-01-16 07:16:00,23.3,22.3,30.65,SE,130,0.0,0.0,96,0.00,,,0.00,Wunderground v.1.15,2013-01-16 15:16:00,
2013-01-16 07:21:00,23.2,22.2,30.65,SE,130,0.0,0.0,96,0.00,,,0.00,Wunderground v.1.15,2013-01-16 15:21:00,
2013-01-16 07:27:00,23.1,22.1,30.65,SE,130,0.0,0.0,96,0.00,,,0.00,Wunderground v.1.15,2013-01-16 15:27:00,
2013-01-16 07:32:00,23.0,22.0,30.65,SE,130,0.0,0.0,96,0.00,,,0.00,Wunderground v.1.15,2013-01-16 15:32:00,
2013-01-16 07:37:00,23.0,22.0,30.65,SE,130,0.0,0.0,96,0.00,,,0.00,Wunderground v.1.15,2013-01-16 15:37:00,
2013-01-16 07:43:00,23.0,22.0,30.65,SE,130,0.0,0.0,96,0.00,,,0.00,Wunderground v.1.15,2013-01-16 15:43:00,
2013-01-16 07:48:00,23.0,22.0,30.65,SE,130,0.0,0.0,96,0.00,,,0.00,Wunderground v.1.15,2013-01-16 15:48:00,
2013-01-16 07:53:00,23.1,22.1,30.65,SE,130,0.0,0.0,96,0.00,,,0.00,Wunderground v.1.15,2013-01-16 15:53:00,
2013-01-16 07:59:00,23.2,22.5,30.65,SE,130,0.0,0.0,97,0.00,,,0.00,Wunderground v.1.15,2013-01-16 15:59:00,
2013-01-16 08:04:00,23.3,22.6,30.65,SE,130,0.0,0.0,97,0.00,,,0.00,Wunderground v.1.15,2013-01-16 16:04:00,
2013-01-16 08:09:00,23.3,22.6,30.65,SE,130,0.0,0.0,97,0.00,,,0.00,Wunderground v.1.15,2013-01-16 16:09:00,
2013-01-16 08:14:00,23.4,22.7,30.65,SE,130,0.0,0.0,97,0.00,,,0.00,Wunderground v.1.15,2013-01-16 16:14:00,
2013-01-16 08:20:00,23.4,22.7,30.65,SE,130,0.0,0.0,97,0.00,,,0.00,Wunderground v.1.15,2013-01-16 16:20:00,
2013-01-16 08:25:00,23.4,22.4,30.66,SE,130,0.0,0.0,96,0.00,,,0.00,Wunderground v.1.15,2013-01-16 16:25:00,
2013-01-16 08:31:00,23.4,22.4,30.66,SE,130,0.0,0.0,96,0.00,,,0.00,Wunderground v.1.15,2013-01-16 16:31:00,
2013-01-16 08:36:00,23.5,22.5,30.66,SE,130,0.0,0.0,96,0.00,,,0.00,Wunderground v.1.15,2013-01-16 16:36:00,
2013-01-16 08:41:00,23.7,23.0,30.66,SE,130,0.0,0.0,97,0.00,,,0.00,Wunderground v.1.15,2013-01-16 16:41:00,
2013-01-16 08:47:00,23.9,23.2,30.66,SE,130,0.0,0.0,97,0.00,,,0.00,Wunderground v.1.15,2013-01-16 16:47:00,
2013-01-16 08:52:00,24.0,23.3,30.66,SE,130,0.0,0.0,97,0.00,,,0.00,Wunderground v.1.15,2013-01-16 16:52:00,
2013-01-16 08:57:00,24.2,23.5,30.66,SE,130,0.0,0.0,97,0.00,,,0.00,Wunderground v.1.15,2013-01-16 16:57:00,
2013-01-16 09:02:00,24.3,23.6,30.66,SE,130,0.0,0.0,97,0.00,,,0.00,Wunderground v.1.15,2013-01-16 17:02:00,
2013-01-16 09:08:00,24.5,23.8,30.66,SE,130,0.0,0.0,97,0.00,,,0.00,Wunderground v.1.15,2013-01-16 17:08:00,
2013-01-16 09:13:00,24.7,24.0,30.66,SE,130,0.0,0.0,97,0.00,,,0.00,Wunderground v.1.15,2013-01-16 17:13:00,
2013-01-16 09:18:00,25.0,24.3,30.66,SE,130,0.0,0.0,97,0.00,,,0.00,Wunderground v.1.15,2013-01-16 17:18:00,
2013-01-16 09:23:00,25.2,24.5,30.66,SE,130,0.0,0.0,97,0.00,,,0.00,Wunderground v.1.15,2013-01-16 17:23:00,
2013-01-16 09:28:00,25.4,24.7,30.66,SE,130,0.0,0.0,97,0.00,,,0.00,Wunderground v.1.15,2013-01-16 17:28:00,
2013-01-16 09:34:00,25.7,25.0,30.66,SE,130,0.0,0.0,97,0.00,,,0.00,Wunderground v.1.15,2013-01-16 17:34:00,
2013-01-16 09:39:00,25.9,25.2,30.66,SE,130,0.0,0.0,97,0.00,,,0.00,Wunderground v.1.15,2013-01-16 17:39:00,
2013-01-16 09:44:00,26.1,25.4,30.66,SE,130,0.0,0.0,97,0.00,,,0.00,Wunderground v.1.15,2013-01-16 17:44:00,
2013-01-16 09:51:00,26.4,25.7,30.66,SE,130,0.0,0.0,97,0.00,,,0.00,Wunderground v.1.15,2013-01-16 17:51:00,
2013-01-16 09:56:00,26.6,26.1,30.66,SE,130,0.0,0.0,98,0.00,,,0.00,Wunderground v.1.15,2013-01-16 17:56:00,
2013-01-16 10:01:00,26.9,26.2,30.65,SE,130,0.0,0.0,97,0.00,,,0.00,Wunderground v.1.15,2013-01-16 18:01:00,
2013-01-16 10:07:00,27.1,26.6,30.65,SE,130,0.0,0.0,98,0.00,,,0.00,Wunderground v.1.15,2013-01-16 18:07:00,
2013-01-16 10:12:00,27.4,26.9,30.65,SE,130,0.0,0.0,98,0.00,,,0.00,Wunderground v.1.15,2013-01-16 18:12:00,
2013-01-16 10:17:00,27.6,27.1,30.65,SE,130,0.0,0.0,98,0.00,,,0.00,Wunderground v.1.15,2013-01-16 18:17:00,
2013-01-16 10:22:00,27.9,27.4,30.65,SE,130,0.0,0.0,98,0.00,,,0.00,Wunderground v.1.15,2013-01-16 18:22:00,
2013-01-16 10:27:00,28.1,27.6,30.65,SE,130,0.0,0.0,98,0.00,,,0.00,Wunderground v.1.15,2013-01-16 18:27:00,
2013-01-16 10:33:00,28.4,27.9,30.65,SE,136,0.0,2.0,98,0.00,,,0.00,Wunderground v.1.15,2013-01-16 18:33:00,
2013-01-16 10:38:00,28.7,28.2,30.65,SE,136,0.0,2.0,98,0.00,,,0.00,Wunderground v.1.15,2013-01-16 18:38:00,
2013-01-16 10:43:00,28.9,28.4,30.64,SE,136,0.0,0.0,98,0.00,,,0.00,Wunderground v.1.15,2013-01-16 18:43:00,
2013-01-16 10:49:00,29.2,28.7,30.64,SE,136,0.0,0.0,98,0.00,,,0.00,Wunderground v.1.15,2013-01-16 18:49:00,
2013-01-16 10:54:00,29.4,28.9,30.64,SE,136,0.0,0.0,98,0.00,,,0.00,Wunderground v.1.15,2013-01-16 18:54:00,
2013-01-16 10:59:00,29.7,29.2,30.64,SE,136,0.0,1.0,98,0.00,,,0.00,Wunderground v.1.15,2013-01-16 18:59:00,
2013-01-16 11:06:00,30.0,29.5,30.64,South,186,1.0,2.0,98,0.00,,,0.00,Wunderground v.1.15,2013-01-16 19:06:00,
2013-01-16 11:11:00,30.3,29.8,30.63,SSW,194,1.0,3.0,98,0.00,,,0.00,Wunderground v.1.15,2013-01-16 19:11:00,
2013-01-16 11:17:00,30.6,30.1,30.64,SW,234,2.0,4.0,98,0.00,,,0.00,Wunderground v.1.15,2013-01-16 19:17:00,
2013-01-16 11:22:00,30.7,30.2,30.64,West,273,2.0,4.0,98,0.00,,,0.00,Wunderground v.1.15,2013-01-16 19:22:00,
2013-01-16 11:27:00,30.9,30.4,30.64,WSW,253,2.0,4.0,98,0.00,,,0.00,Wunderground v.1.15,2013-01-16 19:27:00,
2013-01-16 11:32:00,31.0,30.5,30.64,SW,231,2.0,3.0,98,0.00,,,0.00,Wunderground v.1.15,2013-01-16 19:32:00,
2013-01-16 11:38:00,31.3,30.8,30.64,SW,232,2.0,4.0,98,0.00,,,0.00,Wunderground v.1.15,2013-01-16 19:38:00,
2013-01-16 11:43:00,31.6,31.1,30.64,SW,232,2.0,3.0,98,0.00,,,0.00,Wunderground v.1.15,2013-01-16 19:43:00,
2013-01-16 11:48:00,31.7,31.2,30.64,WSW,254,2.0,3.0,98,0.00,,,0.00,Wunderground v.1.15,2013-01-16 19:48:00,
2013-01-16 11:53:00,31.9,31.4,30.64,SW,236,2.0,4.0,98,0.00,,,0.00,Wunderground v.1.15,2013-01-16 19:53:00,
2013-01-16 11:58:00,32.1,31.6,30.64,SW,236,2.0,4.0,98,0.00,,,0.00,Wunderground v.1.15,2013-01-16 19:58:00,
2013-01-16 12:04:00,32.5,32.0,30.64,SW,236,2.0,2.0,98,0.00,,,0.00,Wunderground v.1.15,2013-01-16 20:04:00,
2013-01-16 12:09:00,32.7,32.2,30.64,SW,236,2.0,3.0,98,0.00,,,0.00,Wunderground v.1.15,2013-01-16 20:09:00,
2013-01-16 12:14:00,32.9,32.1,30.63,SW,236,2.0,3.0,97,0.00,,,0.00,Wunderground v.1.15,2013-01-16 20:14:00,
2013-01-16 12:19:00,33.2,32.4,30.63,SW,236,2.0,3.0,97,0.00,,,0.00,Wunderground v.1.15,2013-01-16 20:19:00,
2013-01-16 12:25:00,33.6,32.8,30.63,SW,236,1.0,3.0,97,0.00,,,0.00,Wunderground v.1.15,2013-01-16 20:25:00,
2013-01-16 12:30:00,33.8,33.0,30.63,SW,236,1.0,1.0,97,0.00,,,0.00,Wunderground v.1.15,2013-01-16 20:30:00,
2013-01-16 12:36:00,34.1,33.1,30.63,SW,236,1.0,3.0,96,0.00,,,0.00,Wunderground v.1.15,2013-01-16 20:36:00,
2013-01-16 12:41:00,34.7,33.7,30.63,SW,236,1.0,1.0,96,0.00,,,0.00,Wunderground v.1.15,2013-01-16 20:41:00,
2013-01-16 12:46:00,35.3,34.0,30.62,SW,236,1.0,1.0,95,0.00,,,0.00,Wunderground v.1.15,2013-01-16 20:46:00,
2013-01-16 12:51:00,35.9,34.1,30.62,SW,236,0.0,1.0,93,0.00,,,0.00,Wunderground v.1.15,2013-01-16 20:51:00,
2013-01-16 12:57:00,36.3,34.5,30.62,SW,236,1.0,3.0,93,0.00,,,0.00,Wunderground v.1.15,2013-01-16 20:57:00,
2013-01-16 13:02:00,36.4,34.3,30.61,SW,236,1.0,3.0,92,0.00,,,0.00,Wunderground v.1.15,2013-01-16 21:02:00,
2013-01-16 13:07:00,36.2,34.1,30.61,SW,236,1.0,3.0,92,0.00,,,0.00,Wunderground v.1.15,2013-01-16 21:07:00,
2013-01-16 13:13:00,36.1,33.7,30.61,SW,236,0.0,2.0,91,0.00,,,0.00,Wunderground v.1.15,2013-01-16 21:13:00,
2013-01-16 13:18:00,36.1,34.0,30.61,SW,236,1.0,2.0,92,0.00,,,0.00,Wunderground v.1.15,2013-01-16 21:18:00,
2013-01-16 13:23:00,36.1,34.0,30.61,SW,236,1.0,4.0,92,0.00,,,0.00,Wunderground v.1.15,2013-01-16 21:23:00,
2013-01-16 13:28:00,36.2,34.1,30.61,SW,236,2.0,4.0,92,0.00,,,0.00,Wunderground v.1.15,2013-01-16 21:28:00,
2013-01-16 13:34:00,36.3,34.2,30.61,SW,236,2.0,3.0,92,0.00,,,0.00,Wunderground v.1.15,2013-01-16 21:34:00,
2013-01-16 13:39:00,36.4,34.0,30.61,SW,233,2.0,6.0,91,0.00,,,0.00,Wunderground v.1.15,2013-01-16 21:39:00,
2013-01-16 13:44:00,36.4,34.0,30.60,SW,233,2.0,3.0,91,0.00,,,0.00,Wunderground v.1.15,2013-01-16 21:44:00,
2013-01-16 13:49:00,36.4,34.0,30.60,SW,233,1.0,3.0,91,0.00,,,0.00,Wunderground v.1.15,2013-01-16 21:49:00,
2013-01-16 13:55:00,36.4,33.7,30.60,SW,233,0.0,1.0,90,0.00,,,0.00,Wunderground v.1.15,2013-01-16 21:55:00,
2013-01-16 14:01:00,36.5,33.8,30.60,SW,233,0.0,1.0,90,0.00,,,0.00,Wunderground v.1.15,2013-01-16 22:01:00,
2013-01-16 14:06:00,36.7,34.0,30.60,SW,233,0.0,1.0,90,0.00,,,0.00,Wunderground v.1.15,2013-01-16 22:06:00,
2013-01-16 14:12:00,36.7,34.0,30.60,SW,233,0.0,3.0,90,0.00,,,0.00,Wunderground v.1.15,2013-01-16 22:12:00,
2013-01-16 14:17:00,36.8,34.1,30.60,SW,233,1.0,3.0,90,0.00,,,0.00,Wunderground v.1.15,2013-01-16 22:17:00,
2013-01-16 14:22:00,37.1,34.4,30.60,SW,232,2.0,4.0,90,0.00,,,0.00,Wunderground v.1.15,2013-01-16 22:22:00,
2013-01-16 14:28:00,37.3,34.4,30.60,SW,233,3.0,4.0,89,0.00,,,0.00,Wunderground v.1.15,2013-01-16 22:28:00,
2013-01-16 14:33:00,37.5,34.6,30.60,SW,233,2.0,3.0,89,0.00,,,0.00,Wunderground v.1.15,2013-01-16 22:33:00,
2013-01-16 14:38:00,37.6,34.4,30.60,SW,233,2.0,3.0,88,0.00,,,0.00,Wunderground v.1.15,2013-01-16 22:38:00,
2013-01-16 14:43:00,37.6,34.4,30.60,SW,233,1.0,2.0,88,0.00,,,0.00,Wunderground v.1.15,2013-01-16 22:43:00,
2013-01-16 14:49:00,37.6,34.7,30.60,SW,233,1.0,2.0,89,0.00,,,0.00,Wunderground v.1.15,2013-01-16 22:49:00,
2013-01-16 14:54:00,37.5,34.3,30.59,SW,233,0.0,2.0,88,0.00,,,0.00,Wunderground v.1.15,2013-01-16 22:54:00,
2013-01-16 14:59:00,37.6,34.4,30.59,SW,233,0.0,2.0,88,0.00,,,0.00,Wunderground v.1.15,2013-01-16 22:59:00,
2013-01-16 15:04:00,37.7,34.5,30.59,SW,233,0.0,2.0,88,0.00,,,0.00,Wunderground v.1.15,2013-01-16 23:04:00,
2013-01-16 15:10:00,37.7,34.5,30.59,SW,233,1.0,2.0,88,0.00,,,0.00,Wunderground v.1.15,2013-01-16 23:10:00,
2013-01-16 15:15:00,37.8,34.6,30.59,SW,233,2.0,2.0,88,0.00,,,0.00,Wunderground v.1.15,2013-01-16 23:15:00,
2013-01-16 15:21:00,38.0,34.8,30.59,SW,233,1.0,1.0,88,0.00,,,0.00,Wunderground v.1.15,2013-01-16 23:21:00,
2013-01-16 15:26:00,38.0,34.5,30.59,SW,233,1.0,2.0,87,0.00,,,0.00,Wunderground v.1.15,2013-01-16 23:26:00,
2013-01-16 15:31:00,37.9,34.7,30.59,SW,233,0.0,0.0,88,0.00,,,0.00,Wunderground v.1.15,2013-01-16 23:31:00,
2013-01-16 15:36:00,37.7,34.5,30.59,SW,233,1.0,2.0,88,0.00,,,0.00,Wunderground v.1.15,2013-01-16 23:36:00,
2013-01-16 15:42:00,37.5,34.3,30.59,SW,233,1.0,2.0,88,0.00,,,0.00,Wunderground v.1.15,2013-01-16 23:42:00,
2013-01-16 15:47:00,37.5,34.3,30.59,SW,233,1.0,2.0,88,0.00,,,0.00,Wunderground v.1.15,2013-01-16 23:47:00,
2013-01-16 15:52:00,37.4,34.2,30.59,SW,233,1.0,1.0,88,0.00,,,0.00,Wunderground v.1.15,2013-01-16 23:52:00,
2013-01-16 15:58:00,37.2,34.0,30.58,SW,233,0.0,1.0,88,0.00,,,0.00,Wunderground v.1.15,2013-01-16 23:58:00,
2013-01-16 16:03:00,37.0,34.1,30.58,SW,233,0.0,1.0,89,0.00,,,0.00,Wunderground v.1.15,2013-01-17 00:03:00,
2013-01-16 16:08:00,37.0,34.1,30.58,SW,233,1.0,2.0,89,0.00,,,0.00,Wunderground v.1.15,2013-01-17 00:08:00,
2013-01-16 16:13:00,36.8,33.9,30.58,SW,233,1.0,1.0,89,0.00,,,0.00,Wunderground v.1.15,2013-01-17 00:13:00,
2013-01-16 16:18:00,36.5,33.6,30.58,SW,233,0.0,1.0,89,0.00,,,0.00,Wunderground v.1.15,2013-01-17 00:18:00,
2013-01-16 16:24:00,36.1,33.5,30.58,SW,233,0.0,0.0,90,0.00,,,0.00,Wunderground v.1.15,2013-01-17 00:24:00,
2013-01-16 16:29:00,35.8,33.2,30.58,SW,233,0.0,0.0,90,0.00,,,0.00,Wunderground v.1.15,2013-01-17 00:29:00,
2013-01-16 16:34:00,35.5,32.9,30.58,SW,233,0.0,0.0,90,0.00,,,0.00,Wunderground v.1.15,2013-01-17 00:34:00,
2013-01-16 16:40:00,35.2,32.8,30.58,SW,233,0.0,0.0,91,0.00,,,0.00,Wunderground v.1.15,2013-01-17 00:40:00,
2013-01-16 16:45:00,35.0,32.9,30.57,SW,233,0.0,0.0,92,0.00,,,0.00,Wunderground v.1.15,2013-01-17 00:45:00,
2013-01-16 16:51:00,34.8,32.7,30.57,SW,233,0.0,0.0,92,0.00,,,0.00,Wunderground v.1.15,2013-01-17 00:51:00,
2013-01-16 16:56:00,34.5,32.4,30.57,SW,233,0.0,0.0,92,0.00,,,0.00,Wunderground v.1.15,2013-01-17 00:56:00,
2013-01-16 17:01:00,34.3,32.5,30.57,SW,233,0.0,0.0,93,0.00,,,0.00,Wunderground v.1.15,2013-01-17 01:01:00,
2013-01-16 17:07:00,34.1,32.3,30.57,SW,233,0.0,0.0,93,0.00,,,0.00,Wunderground v.1.15,2013-01-17 01:07:00,
2013-01-16 17:13:00,33.8,32.3,30.57,SW,233,0.0,0.0,94,0.00,,,0.00,Wunderground v.1.15,2013-01-17 01:13:00,
2013-01-16 17:18:00,33.7,32.2,30.57,SW,233,0.0,0.0,94,0.00,,,0.00,Wunderground v.1.15,2013-01-17 01:18:00,
2013-01-16 17:23:00,33.5,32.0,30.57,SW,233,0.0,0.0,94,0.00,,,0.00,Wunderground v.1.15,2013-01-17 01:23:00,
2013-01-16 17:29:00,33.2,31.4,30.57,SW,233,0.0,0.0,93,0.00,,,0.00,Wunderground v.1.15,2013-01-17 01:29:00,
2013-01-16 17:35:00,32.9,31.4,30.58,SW,233,1.0,2.0,94,0.00,,,0.00,Wunderground v.1.15,2013-01-17 01:35:00,
2013-01-16 17:41:00,32.8,31.5,30.57,SW,233,1.0,2.0,95,0.00,,,0.00,Wunderground v.1.15,2013-01-17 01:41:00,
2013-01-16 17:46:00,32.8,31.5,30.58,SW,233,1.0,2.0,95,0.00,,,0.00,Wunderground v.1.15,2013-01-17 01:46:00,
2013-01-16 17:51:00,32.5,31.2,30.58,SW,233,0.0,0.0,95,0.00,,,0.00,Wunderground v.1.15,2013-01-17 01:51:00,
2013-01-16 17:56:00,32.3,30.8,30.58,SW,233,0.0,0.0,94,0.00,,,0.00,Wunderground v.1.15,2013-01-17 01:56:00,
2013-01-16 18:02:00,32.0,30.5,30.58,SW,233,0.0,2.0,94,0.00,,,0.00,Wunderground v.1.15,2013-01-17 02:02:00,
2013-01-16 18:07:00,31.7,30.2,30.58,SW,233,0.0,2.0,94,0.00,,,0.00,Wunderground v.1.15,2013-01-17 02:07:00,
2013-01-16 18:12:00,31.4,29.9,30.58,SW,233,0.0,0.0,94,0.00,,,0.00,Wunderground v.1.15,2013-01-17 02:12:00,
2013-01-16 18:18:00,31.1,29.6,30.58,SW,233,0.0,0.0,94,0.00,,,0.00,Wunderground v.1.15,2013-01-17 02:18:00,
2013-01-16 18:24:00,30.8,29.3,30.58,SW,233,0.0,0.0,94,0.00,,,0.00,Wunderground v.1.15,2013-01-17 02:24:00,
2013-01-16 18:29:00,30.6,29.3,30.58,SW,233,0.0,0.0,95,0.00,,,0.00,Wunderground v.1.15,2013-01-17 02:29:00,
2013-01-16 18:34:00,30.6,29.3,30.58,SW,233,0.0,0.0,95,0.00,,,0.00,Wunderground v.1.15,2013-01-17 02:34:00,
2013-01-16 18:40:00,30.5,29.5,30.58,SW,233,0.0,0.0,96,0.00,,,0.00,Wunderground v.1.15,2013-01-17 02:40:00,
2013-01-16 18:45:00,30.5,29.5,30.58,SW,233,0.0,0.0,96,0.00,,,0.00,Wunderground v.1.15,2013-01-17 02:45:00,
2013-01-16 18:51:00,30.4,29.4,30.58,SW,233,0.0,0.0,96,0.00,,,0.00,Wunderground v.1.15,2013-01-17 02:51:00,
2013-01-16 18:56:00,30.3,29.3,30.58,SW,233,0.0,0.0,96,0.00,,,0.00,Wunderground v.1.15,2013-01-17 02:56:00,
2013-01-16 19:01:00,30.2,29.2,30.58,SW,233,0.0,0.0,96,0.00,,,0.00,Wunderground v.1.15,2013-01-17 03:01:00,
2013-01-16 19:06:00,30.0,28.7,30.58,SW,233,0.0,2.0,95,0.00,,,0.00,Wunderground v.1.15,2013-01-17 03:06:00,
2013-01-16 19:12:00,29.9,28.6,30.58,SW,233,1.0,2.0,95,0.00,,,0.00,Wunderground v.1.15,2013-01-17 03:12:00,
2013-01-16 19:17:00,29.7,28.4,30.58,SW,233,1.0,3.0,95,0.00,,,0.00,Wunderground v.1.15,2013-01-17 03:17:00,
2013-01-16 19:22:00,29.6,28.3,30.58,SW,233,1.0,1.0,95,0.00,,,0.00,Wunderground v.1.15,2013-01-17 03:22:00,
2013-01-16 19:28:00,29.4,28.1,30.58,SW,233,1.0,1.0,95,0.00,,,0.00,Wunderground v.1.15,2013-01-17 03:28:00,
2013-01-16 19:34:00,29.2,27.9,30.57,SW,233,0.0,0.0,95,0.00,,,0.00,Wunderground v.1.15,2013-01-17 03:34:00,
2013-01-16 19:39:00,29.1,28.1,30.57,SW,233,0.0,1.0,96,0.00,,,0.00,Wunderground v.1.15,2013-01-17 03:39:00,
2013-01-16 19:45:00,28.9,27.6,30.57,SW,233,0.0,0.0,95,0.00,,,0.00,Wunderground v.1.15,2013-01-17 03:45:00,
2013-01-16 19:50:00,28.9,27.6,30.57,SW,233,0.0,0.0,95,0.00,,,0.00,Wunderground v.1.15,2013-01-17 03:50:00,
2013-01-16 19:56:00,28.8,27.8,30.57,SW,233,0.0,0.0,96,0.00,,,0.00,Wunderground v.1.15,2013-01-17 03:56:00,
2013-01-16 20:01:00,28.7,27.7,30.56,SW,233,0.0,0.0,96,0.00,,,0.00,Wunderground v.1.15,2013-01-17 04:01:00,
2013-01-16 20:06:00,28.6,27.6,30.56,SW,233,0.0,0.0,96,0.00,,,0.00,Wunderground v.1.15,2013-01-17 04:06:00,
2013-01-16 20:12:00,28.5,27.5,30.57,SW,233,0.0,0.0,96,0.00,,,0.00,Wunderground v.1.15,2013-01-17 04:12:00,
2013-01-16 20:17:00,28.5,27.5,30.56,SW,233,0.0,0.0,96,0.00,,,0.00,Wunderground v.1.15,2013-01-17 04:17:00,
2013-01-16 20:22:00,28.5,27.5,30.57,SW,233,0.0,0.0,96,0.00,,,0.00,Wunderground v.1.15,2013-01-17 04:22:00,
2013-01-16 20:27:00,28.7,28.0,30.56,SW,233,0.0,0.0,97,0.00,,,0.00,Wunderground v.1.15,2013-01-17 04:27:00,
2013-01-16 20:33:00,29.0,28.3,30.56,SW,233,0.0,1.0,97,0.00,,,0.00,Wunderground v.1.15,2013-01-17 04:33:00,
2013-01-16 20:38:00,29.0,28.3,30.56,SW,233,0.0,1.0,97,0.00,,,0.00,Wunderground v.1.15,2013-01-17 04:38:00,
2013-01-16 20:43:00,28.9,28.2,30.56,SW,233,0.0,0.0,97,0.00,,,0.00,Wunderground v.1.15,2013-01-17 04:43:00,
2013-01-16 20:48:00,28.8,27.8,30.55,SW,233,0.0,1.0,96,0.00,,,0.00,Wunderground v.1.15,2013-01-17 04:48:00,
2013-01-16 20:54:00,28.6,27.6,30.56,SW,233,0.0,1.0,96,0.00,,,0.00,Wunderground v.1.15,2013-01-17 04:54:00,
2013-01-16 20:59:00,28.5,27.5,30.55,SW,233,0.0,1.0,96,0.00,,,0.00,Wunderground v.1.15,2013-01-17 04:59:00,
2013-01-16 21:01:00,28.5,27.5,30.55,SW,233,0.0,0.0,96,0.00,,,0.00,Wunderground v.1.15,2013-01-17 05:01:00,
2013-01-16 21:03:00,28.4,27.4,30.55,SW,233,0.0,0.0,96,0.00,,,0.00,Wunderground v.1.15,2013-01-17 05:03:00,
2013-01-16 21:04:00,28.4,27.4,30.55,SW,233,0.0,1.0,96,0.00,,,0.00,Wunderground v.1.15,2013-01-17 05:04:00,
2013-01-16 21:06:00,28.4,27.4,30.55,SW,233,0.0,1.0,96,0.00,,,0.00,Wunderground v.1.15,2013-01-17 05:06:00,
2013-01-16 21:11:00,28.3,27.3,30.55,SW,233,1.0,1.0,96,0.00,,,0.00,Wunderground v.1.15,2013-01-17 05:11:00,
2013-01-16 21:16:00,28.3,27.3,30.55,SW,233,1.0,3.0,96,0.00,,,0.00,Wunderground v.1.15,2013-01-17 05:16:00,
2013-01-16 21:22:00,28.1,27.1,30.55,SW,233,2.0,2.0,96,0.00,,,0.00,Wunderground v.1.15,2013-01-17 05:22:00,
2013-01-16 21:27:00,28.0,27.0,30.54,SW,233,1.0,2.0,96,0.00,,,0.00,Wunderground v.1.15,2013-01-17 05:27:00,
2013-01-16 21:32:00,27.9,26.9,30.54,SW,233,0.0,0.0,96,0.00,,,0.00,Wunderground v.1.15,2013-01-17 05:32:00,
2013-01-16 21:37:00,27.9,26.9,30.55,SW,233,0.0,0.0,96,0.00,,,0.00,Wunderground v.1.15,2013-01-17 05:37:00,
2013-01-16 21:43:00,28.0,27.0,30.54,SW,233,0.0,0.0,96,0.00,,,0.00,Wunderground v.1.15,2013-01-17 05:43:00,
2013-01-16 21:48:00,28.0,27.3,30.54,SW,233,0.0,0.0,97,0.00,,,0.00,Wunderground v.1.15,2013-01-17 05:48:00,
2013-01-16 21:54:00,27.9,27.2,30.54,SW,233,0.0,0.0,97,0.00,,,0.00,Wunderground v.1.15,2013-01-17 05:54:00,
2013-01-16 21:59:00,27.9,27.2,30.54,SW,233,0.0,0.0,97,0.00,,,0.00,Wunderground v.1.15,2013-01-17 05:59:00,
2013-01-16 22:04:00,27.9,27.2,30.54,SW,233,0.0,2.0,97,0.00,,,0.00,Wunderground v.1.15,2013-01-17 06:04:00,
2013-01-16 22:09:00,28.0,27.3,30.55,SW,233,0.0,2.0,97,0.00,,,0.00,Wunderground v.1.15,2013-01-17 06:09:00,
2013-01-16 22:15:00,28.1,27.4,30.55,SW,233,0.0,2.0,97,0.00,,,0.00,Wunderground v.1.15,2013-01-17 06:15:00,
2013-01-16 22:20:00,28.1,27.4,30.55,SW,233,0.0,0.0,97,0.00,,,0.00,Wunderground v.1.15,2013-01-17 06:20:00,
2013-01-16 22:26:00,28.1,27.4,30.55,SW,233,0.0,0.0,97,0.00,,,0.00,Wunderground v.1.15,2013-01-17 06:26:00,
2013-01-16 22:31:00,28.1,27.4,30.55,SW,233,0.0,0.0,97,0.00,,,0.00,Wunderground v.1.15,2013-01-17 06:31:00,
2013-01-16 22:36:00,28.0,27.3,30.54,SW,233,0.0,0.0,97,0.00,,,0.00,Wunderground v.1.15,2013-01-17 06:36:00,
2013-01-16 22:42:00,27.9,27.2,30.54,SW,233,0.0,0.0,97,0.00,,,0.00,Wunderground v.1.15,2013-01-17 06:42:00,
2013-01-16 22:47:00,27.7,27.0,30.54,SW,233,0.0,0.0,97,0.00,,,0.00,Wunderground v.1.15,2013-01-17 06:47:00,
2013-01-16 22:52:00,27.6,26.6,30.55,SW,233,0.0,0.0,96,0.00,,,0.00,Wunderground v.1.15,2013-01-17 06:52:00,
2013-01-16 22:57:00,27.4,26.4,30.55,SW,233,0.0,0.0,96,0.00,,,0.00,Wunderground v.1.15,2013-01-17 06:57:00,
2013-01-16 23:02:00,27.3,26.3,30.55,SW,233,0.0,0.0,96,0.00,,,0.00,Wunderground v.1.15,2013-01-17 07:02:00,
2013-01-16 23:08:00,27.2,26.2,30.55,SW,233,0.0,3.0,96,0.00,,,0.00,Wunderground v.1.15,2013-01-17 07:08:00,
2013-01-16 23:13:00,27.1,26.4,30.55,SW,233,1.0,2.0,97,0.00,,,0.00,Wunderground v.1.15,2013-01-17 07:13:00,
2013-01-16 23:19:00,27.1,26.4,30.54,SW,233,1.0,2.0,97,0.00,,,0.00,Wunderground v.1.15,2013-01-17 07:19:00,
2013-01-16 23:25:00,27.1,26.4,30.55,SW,233,0.0,1.0,97,0.00,,,0.00,Wunderground v.1.15,2013-01-17 07:25:00,
2013-01-16 23:30:00,27.0,26.3,30.54,SW,233,0.0,2.0,97,0.00,,,0.00,Wunderground v.1.15,2013-01-17 07:30:00,
2013-01-16 23:36:00,26.9,25.9,30.54,SW,233,1.0,2.0,96,0.00,,,0.00,Wunderground v.1.15,2013-01-17 07:36:00,
2013-01-16 23:41:00,26.7,25.7,30.54,SW,233,1.0,1.0,96,0.00,,,0.00,Wunderground v.1.15,2013-01-17 07:41:00,
2013-01-16 23:46:00,26.6,25.6,30.54,SW,233,0.0,1.0,96,0.00,,,0.00,Wunderground v.1.15,2013-01-17 07:46:00,
2013-01-16 23:51:00,26.6,25.9,30.54,SW,233,0.0,0.0,97,0.00,,,0.00,Wunderground v.1.15,2013-01-17 07:51:00,
2013-01-16 23:57:00,26.5,25.8,30.54,SW,233,0.0,2.0,97,0.00,,,0.00,Wunderground v.1.15,2013-01-17 07:57:00,